This demonstration page uses our WeatherBlox Daily Observations layout. Learn more.

Left ArrowRight Arrow

Hourly Observations for April 8, 2020

Temp ( °F °C ) Dew Point ( °F °C ) Humidity (%) Winds ( mph kmh ) Pressure ( in mb ) Visibility ( mi km ) Precip ( " mm )
12:15 am 00:15 Cloudy 55 13 55 13 100 100 S 7 11 29.69 1005 10 16.0934 0 0
12:35 am 00:35 Cloudy 55 13 55 13 100 100 SSW 6 9 29.68 1005 10 16.0934 0 0
12:55 am 00:55 Partly Cloudy 55 13 55 13 100 100 SSW 7 11 29.66 1004 10 16.0934 0 0
1:15 am 01:15 Clear 54 12 54 12 100 100 SSW 6 9 29.65 1004 10 16.0934 0 0
1:35 am 01:35 Clear 54 12 54 12 100 100 SW 5 7 29.64 1004 10 16.0934 0 0
1:55 am 01:55 Clear 54 12 54 12 100 100 SW 6 9 29.63 1003 10 16.0934 0 0
2:15 am 02:15 Clear 54 12 54 12 100 100 SSW 5 7 29.61 1003 10 16.0934 0 0
2:35 am 02:35 Clear 54 12 54 12 100 100 SSW 5 7 29.6 1002 10 16.0934 0 0
2:55 am 02:55 Partly Cloudy 54 12 54 12 100 100 Calm 29.59 1002 10 16.0934 0 0
3:15 am 03:15 Mostly Cloudy 54 12 54 12 100 100 Calm 29.59 1002 10 16.0934 0 0
3:35 am 03:35 Partly Cloudy 54 12 54 12 100 100 S 3 6 29.57 1001 10 16.0934 0 0
3:55 am 03:55 Clear 54 12 54 12 100 100 S 5 7 29.57 1001 10 16.0934 0 0
4:15 am 04:15 Mostly Cloudy with Thunderstorms 55 13 54 12 94 94 N 25 41 29.64 1004 7 11.26538 0 0
4:35 am 04:35 Cloudy 55 13 54 12 94 94 N 13 20 29.66 1004 7 11.26538 0 0
4:55 am 04:55 Cloudy 54 12 54 12 100 100 NNE 7 11 29.64 1004 7 11.26538 0 0
5:15 am 05:15 Cloudy 54 12 54 12 100 100 Calm 29.64 1004 10 16.0934 0 0
5:35 am 05:35 Cloudy 52 11 52 11 100 100 SW 7 11 29.64 1004 10 16.0934 0 0
5:55 am 05:55 Cloudy 52 11 52 11 100 100 WSW 6 9 29.64 1004 10 16.0934 0 0
6:15 am 06:15 Cloudy 52 11 52 11 100 100 SW 6 9 29.62 1003 10 16.0934 0 0
6:35 am 06:35 Cloudy 52 11 52 11 100 100 Calm 29.63 1004 10 16.0934 0 0
6:55 am 06:55 Cloudy 54 12 52 11 94 94 W 14 22 29.62 1003 10 16.0934 0 0
7:15 am 07:15 Mostly Cloudy 55 13 52 11 88 88 SW 12 19 29.55 1001 10 16.0934 0 0
7:35 am 07:35 Partly Cloudy 55 13 52 11 88 88 W 17 28 29.58 1002 10 16.0934 0 0
7:55 am 07:55 Sunny 55 13 52 11 88 88 W 14 22 29.59 1002 10 16.0934 0 0
8:15 am 08:15 Sunny 57 14 52 11 82 82 WNW 12 19 29.6 1002 10 16.0934 0 0
8:35 am 08:35 Sunny 59 15 52 11 77 77 ENE 5 7 29.61 1003 10 16.0934 0 0
8:55 am 08:55 Sunny 59 15 52 11 77 77 Calm 29.62 1003 10 16.0934 0 0
9:15 am 09:15 Sunny 61 16 52 11 72 72 ESE 5 7 29.62 1003 10 16.0934 0 0
9:35 am 09:35 Sunny 61 16 54 12 77 77 ESE 6 9 29.63 1003 10 16.0934 0 0
9:55 am 09:55 Sunny 61 16 52 11 72 72 Calm 29.63 1003 10 16.0934 0 0
10:15 am 10:15 Sunny 63 17 54 12 73 73 WNW 7 11 29.63 1003 10 16.0934 0 0
10:35 am 10:35 Sunny 64 18 54 12 68 68 WSW 6 9 29.62 1003 10 16.0934 0 0
10:55 am 10:55 Partly Cloudy 64 18 54 12 68 68 W 7 11 29.63 1004 10 16.0934 0 0
11:15 am 11:15 Mostly Cloudy 68 20 54 12 60 60 NW 13 20 29.63 1003 10 16.0934 0 0
11:35 am 11:35 Partly Cloudy 68 20 55 13 64 64 WNW 5 7 29.63 1003 10 16.0934 0 0
11:55 am 11:55 Partly Cloudy 70 21 55 13 60 60 WNW 10 17 29.62 1003 10 16.0934 0 0
12:15 pm 12:15 Sunny 70 21 55 13 60 60 NW 21 33 29.61 1003 10 16.0934 0.01 0.254
12:35 pm 12:35 Sunny 72 22 55 13 57 57 NW 13 20 29.62 1003 10 16.0934 0.01 0.254
12:55 pm 12:55 Partly Cloudy 72 22 55 13 57 57 N 12 19 29.62 1003 10 16.0934 0.01 0.254
1:15 pm 13:15 Mostly Cloudy with Nearby Thunderstorms 72 22 57 14 61 61 NW 12 19 29.61 1003 10 16.0934 0 0
1:35 pm 13:35 Partly Cloudy 73 23 55 13 53 53 NNW 9 15 29.61 1003 10 16.0934 0 0
1:55 pm 13:55 Partly Cloudy 72 22 55 13 57 57 NNW 13 20 29.61 1003 10 16.0934 0 0
2:15 pm 14:15 Partly Cloudy 73 23 57 14 57 57 NW 12 19 29.61 1003 10 16.0934 0 0
2:35 pm 14:35 Partly Cloudy 73 23 57 14 57 57 N 12 19 29.61 1003 10 16.0934 0 0
2:55 pm 14:55 Partly Cloudy 73 23 54 12 50 50 N 14 22 29.61 1003 10 16.0934 0 0
3:15 pm 15:15 Mostly Cloudy 73 23 54 12 50 50 NNW 18 30 29.6 1002 10 16.0934 0 0
3:35 pm 15:35 Cloudy 73 23 54 12 50 50 NNW 20 31 29.6 1002 10 16.0934 0 0
3:55 pm 15:55 Mostly Cloudy 72 22 54 12 53 53 NNW 21 33 29.6 1002 10 16.0934 0 0
4:15 pm 16:15 Partly Cloudy 73 23 54 12 50 50 NW 14 22 29.61 1003 10 16.0934 0 0
4:35 pm 16:35 Partly Cloudy 73 23 54 12 50 50 NNW 17 28 29.61 1003 10 16.0934 0 0
4:55 pm 16:55 Partly Cloudy 72 22 54 12 53 53 NNW 15 24 29.62 1003 10 16.0934 0 0
5:15 pm 17:15 Partly Cloudy 73 23 54 12 50 50 NW 13 20 29.61 1003 10 16.0934 0 0
5:35 pm 17:35 Sunny 73 23 52 11 47 47 NW 16 26 29.61 1003 10 16.0934 0 0
5:55 pm 17:55 Sunny 73 23 52 11 47 47 WNW 15 24 29.61 1003 10 16.0934 0 0
6:15 pm 18:15 Sunny 72 22 52 11 50 50 WNW 12 19 29.61 1003 10 16.0934 0 0
6:35 pm 18:35 Sunny 72 22 50 10 47 47 WNW 12 19 29.62 1003 10 16.0934 0 0
6:55 pm 18:55 Sunny 72 22 50 10 47 47 WNW 9 15 29.62 1003 10 16.0934 0 0
7:15 pm 19:15 Sunny 70 21 48 9 46 46 NW 14 22 29.62 1003 10 16.0934 0 0
7:35 pm 19:35 Sunny 70 21 46 8 43 43 NW 10 17 29.62 1003 10 16.0934 0 0
7:55 pm 19:55 Clear 68 20 45 7 43 43 NNW 12 19 29.62 1003 10 16.0934 0 0
8:15 pm 20:15 Clear 68 20 43 6 40 40 N 8 13 29.63 1003 10 16.0934 0 0
8:35 pm 20:35 Clear 68 20 45 7 43 43 N 6 9 29.63 1003 10 16.0934 0 0
8:55 pm 20:55 Clear 68 20 45 7 43 43 N 3 6 29.64 1004 10 16.0934 0 0
9:15 pm 21:15 Clear 64 18 45 7 49 49 N 3 6 29.64 1004 10 16.0934 0 0
9:35 pm 21:35 Clear 59 15 46 8 63 63 WNW 3 6 29.66 1004 10 16.0934 0 0
9:55 pm 21:55 Clear 59 15 46 8 63 63 WNW 3 6 29.66 1004 10 16.0934 0 0
10:15 pm 22:15 Clear 61 16 46 8 59 59 NNW 3 6 29.66 1004 10 16.0934 0 0
10:35 pm 22:35 Clear 61 16 46 8 59 59 NW 3 6 29.66 1004 10 16.0934 0 0
10:55 pm 22:55 Clear 55 13 46 8 72 72 Calm 29.65 1004 10 16.0934 0 0
11:15 pm 23:15 Clear 59 15 46 8 63 63 NE 5 7 29.64 1004 10 16.0934 0 0
11:35 pm 23:35 Clear 54 12 46 8 77 77 N 3 6 29.63 1003 10 16.0934 0 0
11:55 pm 23:55 Clear 54 12 46 8 77 77 N 3 6 29.61 1003 10 16.0934 0 0

Powered by AerisWeather